Regional Weather Roundup
Issued by NWS

Home | Current Version | Previous Version | Text Only | Print | Product List | Glossary On
Versions: 1 2 3 4 5 6 7 8 9 10 11 12 13 14 15 16 17 18 19 20 21 22 23 24 25 26 27 28 29 30 31 32 33 34 35 36 37 38 39 40 41 42 43 44 45 46 47 48 49 50
000
ASUS43 KLMK 222210
RWRKY
KENTUCKY REGIONAL WEATHER ROUNDUP
NATIONAL WEATHER SERVICE LOUISVILLE KY
600 PM EDT SUN APR 22 2018

NOTE "FAIR" INDICATES FEW OR NO CLOUDS BELOW 12,000 FEET
WITH NO SIGNIFICANT WEATHER AND/OR OBSTRUCTIONS TO VISIBILITY.

KYZ001>023-026-027-061>063-070>075-222300-
WESTERN AND SOUTH CENTRAL KENTUCKY

CITY           SKY/WX    TMP DP  RH WIND       PRES   REMARKS
PADUCAH        LGT RAIN  59  57  93 E14       29.97S
HENDERSON      LGT RAIN  61  55  81 SE8       30.07
OWENSBORO      LGT RAIN  61  53  75 E13       30.08S
HOPKINSVILLE   DRIZZLE   59  59 100 E18       29.99F
BOWLING GREEN  LGT RAIN  60  57  89 E13       30.08F
GLASGOW        PTSUNNY   62  53  73 E9        30.08F
$$

KYZ024-025-028>034-038-045-046-053-222300-
NORTH CENTRAL KENTUCKY

CITY           SKY/WX    TMP DP  RH WIND       PRES   REMARKS
LOUISVILLE/SDF LGT RAIN  71  40  32 SE13      30.10F
LOUISVILLE/LOU LGT RAIN  69  44  40 E12       30.11F
FORT KNOX      CLOUDY    69  42  37 SE9       30.09F
$$

KYZ035>037-039>044-047>052-055>060-089>105-222300-
NORTHEAST KENTUCKY

CITY           SKY/WX    TMP DP  RH WIND       PRES   REMARKS
LEXINGTON      CLOUDY    67  44  43 NE8       30.14F
COVINGTON      CLOUDY    63  28  26 E13       30.17F
FRANKFORT      FAIR      69  37  30 E8        30.12F
$$

KYZ054-064>069-076>088-106>120-222300-
SOUTHEAST KENTUCKY

CITY           SKY/WX    TMP DP  RH WIND       PRES   REMARKS
JACKSON        FAIR      71  33  24 VRB5      30.14F
LONDON         FAIR      70  38  31 SE7       30.12F
SOMERSET       CLOUDY    70  37  30 MISG      30.11F
MIDDLESBORO    CLOUDY    68  49  50 SE7       30.14F
MONTICELLO     FAIR      65  52  62 SE8       30.12F
$$




USA.gov is the U.S. government's official web portal to all federal, state and local government web resources and services.